COSMOS 2251 DEB, 33992

Orbit data source: Space-Track

COSMOS 2251 DEB, 33992 is space debris in LEO originally from a launch on Wed, 16 Jun 1993 UTC launched from the Plesetsk Missile And Space Complex (PKMTR). The debris from Iridium 33, an American commercial communications satellite, has been tracked extensively since its accidental collision with the defunct Russian satellite Cosmos 2251 in 2009. This event, occurring at high speed in low Earth orbit (LEO), generated thousands of pieces of space debris, significantly increasing the risk of further collisions. The Iridium 33 debris cloud has impacted space traffic management and orbital debris mitigation strategies, making it a subject of ongoing study in space situational awareness.

Loading next visibility...
Identifier
33992, 1993-036GB
Orbit
LEO
Country
Flag of CISCIS
Related business
Manufacturer
Unknown
Mission
Spacecraft
Bus & Motor
Unknown
Mass
Unknown
Launch date (UTC)
1993-06-16 (33 years ago)
Launch vehicle
Unknown
Launch site
Plesetsk Missile And Space Complex (PKMTR)
Object type
Payload
Rocket body
Debris
Shape & HBR
Unknown shape, 0.2 m
Radar Cross Section
Medium (>0.1 m² and <1 m²)

Expand to show TLE details & history
Last TLE update: 7 hours ago

TLE from 7 hours ago
0 COSMOS 2251 DEB
1 33992U 93036GB  26220.11632439  .00001461  00000-0  25509-3 0  9994
2 33992  74.0198 237.1900 0054867 294.7666 121.5724 14.67980520926213
Epoch: 2026-08-08T02:47Z
TLE epoch observation values (Epoch: 2026-08-08T02:47:30.427Z)
Latitude
53.72947°
Longitude
-98.47836°
Altitude
696.392 km
Speed
7.502 km/s
True Right ascension
17h 20m 07s
True Declination
53° 33' 50"
Sunlit
Object was in daylight at epoch
Visualization orbit readout
Latitude
Unknown
Longitude
Unknown
Altitude
Unknown
Speed
Unknown
Apparent Right ascension
Unknown
Apparent Declination
Unknown
Sunlit
N/A
Visualization observer readout
Local Sidereal Time
00:00:50
Azimuth
Unknown
Elevation
Unknown
Doppler factor
Unknown
Orbital elements
Apogee altitude
703.757 km
Perigee altitude
626.468 km
Semi-major axis
7,043.249 km
Eccentricity
0.00549
Inclination
74.0198°
RAAN
237.19°
Arg. of periapsis
294.7666°
True anomaly
122.10614°
Mean anomaly
121.5724°
Eccentric anomaly
121.83946°
Mean motion
3.67184 °/min
Orbital period
98.04 mins
BSTAR
0.00025509
Loading maneuver chart data...
Computing Atmospheric mass density...
Loading historical data...
Loading historical data...
Loading historical data...
Loading historical data...
Loading historical data...
Loading historical data...
Loading historical data...

Documentation

Showing up to 5 results
|